Terug naar catalogus

SERT3

ActiefWetenschapSSO
NORAD 68499·PAYLOAD·🇺🇸 United States

Gelanceerd Mar 30, 2026 vanaf Vandenberg Space Force Base

Loading…

Volgende Passages (komende 24 uur)

TLE

VersSource: Space-Track

Epoch: Sep 14, 2026, 14:47 UTC

1 68499U 26067CM  26257.61606347  .00001249  00000-0  12944-3 0  9991
2 68499  97.7671 214.4380 0002890  95.9518 264.2030 14.91772552 25055

Volg SERT3 in realtime met AllMySat

Download on the App Store